This is the latest recevied weather packets stored in our database for station/object KF5JED-13. If no packets are shown the sender has not sent any weather packets the latest 10 day(s).
| Time | Temp. | Humidity | Pressure | Rain* | Wind** | Luminosity | Snow |
|---|---|---|---|---|---|---|---|
| 1777593631 | 15° C | 61% | 1015.1 hPa | 0 mm | - | 83 W/m² | - |
| 1777593327 | 15° C | 60% | 1015 hPa | 0 mm | - | 107 W/m² | - |
| 1777593021 | 15° C | 60% | 1015.1 hPa | 0 mm | - | 109 W/m² | - |
| 1777592715 | 15° C | 60% | 1014.8 hPa | 0 mm | - | 109 W/m² | - |
| 1777592411 | 15° C | 59% | 1014.9 hPa | 0 mm | - | 139 W/m² | - |
| 1777592106 | 15.56° C | 58% | 1014.8 hPa | 0 mm | - | 142 W/m² | - |
| 1777591805 | 15.56° C | 58% | 1014.7 hPa | 0 mm | - | 136 W/m² | - |
| 1777591500 | 15.56° C | 58% | 1014.8 hPa | 0 mm | - | 134 W/m² | - |
| 1777591196 | 16.11° C | 56% | 1014.6 hPa | 0 mm | - | 142 W/m² | - |
| 1777590890 | 16.11° C | 56% | 1014.7 hPa | 0 mm | - | 150 W/m² | - |
| 1777590588 | 15.56° C | 56% | 1014.5 hPa | 0 mm | - | 164 W/m² | - |
| 1777590283 | 16.11° C | 56% | 1014.3 hPa | 0 mm | - | 172 W/m² | - |
| 1777589981 | 15.56° C | 55% | 1014.1 hPa | 0 mm | - | 186 W/m² | - |
| 1777589677 | 16.11° C | 54% | 1014.2 hPa | 0 mm | - | 171 W/m² | - |
| 1777589375 | 16.11° C | 54% | 1014.5 hPa | 0 mm | - | 204 W/m² | - |
| 1777589072 | 16.11° C | 53% | 1014.5 hPa | 0 mm | - | 180 W/m² | - |
| 1777588768 | 16.11° C | 52% | 1014.6 hPa | 0 mm | - | 173 W/m² | - |
| 1777588463 | 16.67° C | 52% | 1014.3 hPa | 0 mm | - | 180 W/m² | - |
| 1777588159 | 16.67° C | 50% | 1014.5 hPa | 0 mm | - | 171 W/m² | - |
| 1777587855 | 17.22° C | 48% | 1014.5 hPa | 0 mm | - | 209 W/m² | - |
| 1777587550 | 16.67° C | 49% | 1014.5 hPa | 0 mm | - | 231 W/m² | - |
| 1777587245 | 16.67° C | 48% | 1014.8 hPa | 0 mm | - | 201 W/m² | - |
| 1777586941 | 17.22° C | 47% | 1014.6 hPa | 0 mm | - | 193 W/m² | - |
| 1777586637 | 16.67° C | 47% | 1014.5 hPa | 0 mm | - | 232 W/m² | - |
| 1777586332 | 17.22° C | 46% | 1014.5 hPa | 0 mm | - | 254 W/m² | - |
* Rain latest hour (hover to see other rain measurements)
** Current wind speed in m/s (hover to see current wind gust speed)